TimeEST,TemperatureF,Dew PointF,Humidity,Sea Level PressureIn,VisibilityMPH,Wind Direction,Wind SpeedMPH,Gust SpeedMPH,PrecipitationIn,Events,Conditions,WindDirDegrees,DateUTC
12:27 AM,26.6,19.4,74,29.43,2.5,WNW,12.7,28.8,0.00,Snow,Light Snow,300,2013-01-31 05:27:00
12:35 AM,26.6,17.6,69,29.44,4.0,WNW,18.4,27.6,0.00,Snow,Light Snow,290,2013-01-31 05:35:00
12:53 AM,27.0,18.0,69,29.47,5.0,WNW,18.4,26.5,0.00,Snow,Light Snow,290,2013-01-31 05:53:00
1:53 AM,26.1,15.1,63,29.50,10.0,WNW,17.3,34.5,0.00,,Overcast,290,2013-01-31 06:53:00
2:15 AM,24.8,14.0,64,29.50,10.0,WNW,18.4,28.8,N/A,,Overcast,300,2013-01-31 07:15:00
2:48 AM,24.8,17.6,74,29.51,1.8,NW,20.7,28.8,0.00,Snow,Light Snow,310,2013-01-31 07:48:00
2:49 AM,25.0,18.0,75,29.53,1.8,NW,18.4,28.8,0.00,Snow,Light Snow,310,2013-01-31 07:49:00
2:53 AM,24.8,17.6,74,29.51,3.0,WNW,16.1,28.8,0.00,Snow,Light Snow,300,2013-01-31 07:53:00
3:12 AM,24.8,15.8,69,29.53,1.5,West,16.1,26.5,0.00,Snow,Light Snow,280,2013-01-31 08:12:00
3:15 AM,24.8,17.6,74,29.53,0.8,West,20.7,29.9,0.00,Snow,Light Snow,280,2013-01-31 08:15:00
3:17 AM,24.8,17.6,74,29.53,0.5,WNW,18.4,31.1,0.00,Snow,Snow,290,2013-01-31 08:17:00
3:31 AM,24.8,19.4,80,29.53,1.0,WNW,17.3,26.5,0.00,Snow,Light Snow,290,2013-01-31 08:31:00
3:36 AM,24.8,17.6,74,29.53,2.0,West,17.3,26.5,0.00,Snow,Light Snow,280,2013-01-31 08:36:00
3:40 AM,24.8,17.6,74,29.53,1.8,West,16.1,26.5,0.00,Snow,Light Snow,280,2013-01-31 08:40:00
3:50 AM,24.8,15.8,69,29.54,3.0,WNW,16.1,31.1,0.01,Snow,Light Snow,290,2013-01-31 08:50:00
3:53 AM,24.1,16.0,71,29.56,4.0,WNW,15.0,27.6,0.01,Snow,Light Snow,290,2013-01-31 08:53:00
4:03 AM,24.8,15.8,69,29.54,1.8,West,21.9,33.4,0.00,Snow,Light Snow,280,2013-01-31 09:03:00
4:10 AM,24.8,14.0,64,29.54,2.0,WNW,12.7,34.5,0.00,Snow,Light Snow,290,2013-01-31 09:10:00
4:18 AM,24.8,12.2,59,29.54,6.0,WNW,19.6,26.5,0.00,Snow,Light Snow,290,2013-01-31 09:18:00
4:28 AM,24.8,14.0,64,29.55,4.0,WNW,13.8,27.6,0.00,Snow,Light Snow,290,2013-01-31 09:28:00
4:53 AM,24.1,14.0,65,29.58,4.0,WNW,13.8,27.6,0.00,Snow,Light Snow,300,2013-01-31 09:53:00
5:18 AM,24.8,15.8,69,29.57,2.0,West,17.3,31.1,0.00,Snow,Light Snow,280,2013-01-31 10:18:00
5:21 AM,24.8,15.8,69,29.57,1.8,West,19.6,31.1,0.00,Snow,Light Snow,280,2013-01-31 10:21:00
5:33 AM,24.8,14.0,64,29.57,3.0,WNW,15.0,28.8,0.00,Snow,Light Snow,290,2013-01-31 10:33:00
5:45 AM,23.0,15.8,74,29.58,1.8,West,17.3,28.8,0.00,Snow,Light Snow,280,2013-01-31 10:45:00
5:53 AM,23.0,15.1,72,29.60,2.0,WNW,17.3,27.6,0.00,Snow,Light Snow,290,2013-01-31 10:53:00
5:58 AM,23.0,14.0,68,29.58,4.0,WNW,13.8,27.6,0.00,Snow,Light Snow,290,2013-01-31 10:58:00
6:06 AM,23.0,12.2,63,29.58,5.0,West,18.4,28.8,0.00,Snow,Light Snow,270,2013-01-31 11:06:00
6:11 AM,23.0,14.0,68,29.58,2.5,West,19.6,27.6,0.00,Snow,Light Snow,280,2013-01-31 11:11:00
6:23 AM,23.0,12.2,63,29.59,6.0,West,17.3,25.3,0.00,Snow,Light Snow,280,2013-01-31 11:23:00
6:32 AM,21.2,14.0,74,29.60,2.0,West,17.3,25.3,0.00,Snow,Light Snow,280,2013-01-31 11:32:00
6:36 AM,21.2,14.0,74,29.60,1.5,West,21.9,32.2,0.00,Snow,Light Snow,280,2013-01-31 11:36:00
6:43 AM,23.0,14.0,68,29.60,2.0,West,15.0,32.2,0.00,Snow,Light Snow,280,2013-01-31 11:43:00
6:53 AM,23.0,12.9,65,29.63,5.0,West,18.4,26.5,0.00,Snow,Light Snow,270,2013-01-31 11:53:00
7:03 AM,23.0,12.2,63,29.61,5.0,West,18.4,25.3,0.00,Snow,Light Snow,270,2013-01-31 12:03:00
7:06 AM,21.2,12.2,68,29.61,2.5,WNW,17.3,27.6,0.00,Snow,Light Snow,290,2013-01-31 12:06:00
7:14 AM,23.0,12.2,63,29.61,3.0,West,15.0,25.3,0.00,Snow,Light Snow,280,2013-01-31 12:14:00
7:19 AM,21.2,14.0,74,29.62,2.5,West,15.0,24.2,0.00,Snow,Light Snow,270,2013-01-31 12:19:00
7:53 AM,21.0,14.0,74,29.66,1.2,West,16.1,28.8,0.00,Snow,Light Snow,270,2013-01-31 12:53:00
8:02 AM,21.2,12.2,68,29.63,2.5,West,16.1,26.5,0.00,Snow,Light Snow,260,2013-01-31 13:02:00
8:09 AM,21.2,12.2,68,29.64,3.0,West,18.4,29.9,0.00,Snow,Light Snow,280,2013-01-31 13:09:00
8:16 AM,21.2,12.2,68,29.64,2.0,West,16.1,26.5,0.00,Snow,Light Snow,270,2013-01-31 13:16:00
8:23 AM,21.2,12.2,68,29.64,1.2,West,18.4,27.6,0.00,Snow,Light Snow,270,2013-01-31 13:23:00
8:29 AM,21.2,12.2,68,29.65,2.0,West,16.1,26.5,0.00,Snow,Light Snow,280,2013-01-31 13:29:00
8:37 AM,21.2,12.2,68,29.65,1.2,West,17.3,27.6,0.00,Snow,Light Snow,270,2013-01-31 13:37:00
8:53 AM,21.0,12.0,68,29.70,0.8,West,19.6,29.9,0.00,Snow,Light Snow,270,2013-01-31 13:53:00
9:08 AM,19.4,12.2,74,29.67,0.5,West,17.3,32.2,0.00,Snow,Snow,270,2013-01-31 14:08:00
9:14 AM,19.4,10.4,68,29.67,1.0,West,20.7,31.1,0.00,Snow,Light Snow,270,2013-01-31 14:14:00
9:22 AM,19.4,12.2,74,29.68,0.5,West,23.0,32.2,0.00,Snow,Snow,270,2013-01-31 14:22:00
9:38 AM,19.4,12.2,74,29.69,0.8,West,17.3,31.1,0.00,Snow,Light Snow,270,2013-01-31 14:38:00
9:53 AM,21.0,12.0,68,29.73,1.0,West,13.8,25.3,0.00,Snow,Light Snow,280,2013-01-31 14:53:00
10:07 AM,19.4,12.2,74,29.70,0.5,West,17.3,25.3,0.00,Snow,Snow,280,2013-01-31 15:07:00
10:20 AM,21.2,12.2,68,29.70,0.8,West,18.4,28.8,0.00,Snow,Light Snow,280,2013-01-31 15:20:00
10:43 AM,19.4,12.2,74,29.71,1.2,West,13.8,27.6,0.00,Snow,Light Snow,270,2013-01-31 15:43:00
10:53 AM,21.0,12.0,68,29.75,1.0,West,19.6,25.3,0.00,Snow,Light Snow,280,2013-01-31 15:53:00
11:02 AM,21.2,12.2,68,29.72,0.5,West,21.9,32.2,0.00,Snow,Snow,270,2013-01-31 16:02:00
11:13 AM,21.2,12.2,68,29.73,1.0,West,18.4,24.2,0.00,Snow,Light Snow,270,2013-01-31 16:13:00
11:30 AM,21.2,10.4,63,29.73,2.0,West,12.7,27.6,0.00,Snow,Light Snow,270,2013-01-31 16:30:00
11:40 AM,21.2,10.4,63,29.73,2.5,West,18.4,27.6,0.00,Snow,Light Snow,270,2013-01-31 16:40:00
11:49 AM,21.2,10.4,63,29.73,4.0,West,15.0,24.2,0.00,Snow,Light Snow,270,2013-01-31 16:49:00
11:53 AM,21.0,10.9,65,29.77,3.0,West,15.0,24.2,0.00,Snow,Light Snow,260,2013-01-31 16:53:00
12:00 PM,21.2,12.2,68,29.74,1.8,West,18.4,26.5,0.00,Snow,Light Snow,260,2013-01-31 17:00:00
12:08 PM,19.4,12.2,74,29.74,1.0,West,16.1,26.5,0.00,Snow,Light Snow,270,2013-01-31 17:08:00
12:27 PM,21.2,10.4,63,29.74,2.0,West,15.0,24.2,0.00,Snow,Light Snow,270,2013-01-31 17:27:00
12:35 PM,21.2,12.2,68,29.74,6.0,West,13.8,-,0.00,Snow,Light Snow,280,2013-01-31 17:35:00
12:53 PM,21.0,10.9,65,29.78,3.0,West,17.3,23.0,0.00,Snow,Light Snow,280,2013-01-31 17:53:00
1:01 PM,21.2,10.4,63,29.75,2.5,West,15.0,25.3,0.00,Snow,Light Snow,280,2013-01-31 18:01:00
1:09 PM,21.2,10.4,63,29.75,4.0,West,17.3,24.2,0.00,Snow,Light Snow,270,2013-01-31 18:09:00
1:39 PM,21.2,10.4,63,29.75,2.5,West,12.7,26.5,0.00,Snow,Light Snow,280,2013-01-31 18:39:00
1:46 PM,21.2,10.4,63,29.75,1.8,West,13.8,19.6,0.00,Snow,Light Snow,280,2013-01-31 18:46:00
1:49 PM,21.2,10.4,63,29.75,4.0,West,15.0,19.6,0.00,Snow,Light Snow,270,2013-01-31 18:49:00
1:53 PM,21.0,10.9,65,29.79,7.0,West,16.1,25.3,0.00,,Overcast,270,2013-01-31 18:53:00
1:58 PM,19.4,12.2,74,29.76,1.5,West,12.7,25.3,0.00,Snow,Light Snow,280,2013-01-31 18:58:00
2:04 PM,19.4,12.2,74,29.76,0.8,West,12.7,23.0,0.00,Snow,Light Snow,270,2013-01-31 19:04:00
2:16 PM,19.4,12.2,74,29.76,0.2,West,17.3,25.3,0.00,Snow,Heavy Snow,270,2013-01-31 19:16:00
2:24 PM,19.4,12.2,74,29.77,0.8,West,16.1,23.0,0.00,Snow,Light Snow,260,2013-01-31 19:24:00
2:36 PM,19.4,12.2,74,29.77,0.5,West,10.4,19.6,0.00,Snow,Snow,280,2013-01-31 19:36:00
2:53 PM,19.9,12.9,74,29.81,0.5,West,11.5,20.7,0.01,Snow,Snow,280,2013-01-31 19:53:00
3:22 PM,19.4,12.2,74,29.79,0.5,West,13.8,28.8,0.00,Snow,Snow,270,2013-01-31 20:22:00
3:29 PM,19.4,12.2,74,29.78,0.8,West,15.0,25.3,0.00,Snow,Light Snow,270,2013-01-31 20:29:00
3:42 PM,19.4,12.2,74,29.79,1.0,West,12.7,-,0.00,Snow,Light Snow,270,2013-01-31 20:42:00
3:53 PM,19.9,12.9,74,29.83,1.2,West,13.8,23.0,0.00,Snow,Light Snow,260,2013-01-31 20:53:00
4:00 PM,19.4,12.2,74,29.79,2.0,West,11.5,23.0,0.00,Snow,Light Snow,270,2013-01-31 21:00:00
4:13 PM,19.4,10.4,68,29.80,1.8,West,15.0,26.5,0.00,Snow,Light Snow,280,2013-01-31 21:13:00
4:26 PM,19.4,8.6,63,29.80,3.0,West,13.8,24.2,0.00,Snow,Light Snow,270,2013-01-31 21:26:00
4:53 PM,19.9,10.9,68,29.84,3.0,West,13.8,23.0,0.00,Snow,Light Snow,270,2013-01-31 21:53:00
4:58 PM,19.4,10.4,68,29.81,1.5,WNW,18.4,23.0,0.00,Snow,Light Snow,290,2013-01-31 21:58:00
5:03 PM,19.4,10.4,68,29.81,0.8,West,13.8,23.0,0.00,Snow,Light Snow,270,2013-01-31 22:03:00
5:13 PM,19.4,10.4,68,29.81,1.2,West,12.7,-,0.00,Snow,Light Snow,280,2013-01-31 22:13:00
5:29 PM,19.4,10.4,68,29.82,0.5,West,15.0,23.0,0.00,Snow,Snow,270,2013-01-31 22:29:00
5:40 PM,17.6,12.2,79,29.82,0.2,West,16.1,-,0.00,Snow,Heavy Snow,280,2013-01-31 22:40:00
5:51 PM,19.4,10.4,68,29.82,1.0,West,13.8,-,0.00,Snow,Light Snow,270,2013-01-31 22:51:00
5:53 PM,19.0,10.9,71,29.86,1.5,West,11.5,-,0.00,Snow,Light Snow,280,2013-01-31 22:53:00
6:02 PM,19.4,10.4,68,29.83,2.5,West,10.4,-,0.00,Snow,Light Snow,280,2013-01-31 23:02:00
6:19 PM,19.4,10.4,68,29.84,1.2,West,12.7,-,0.00,Snow,Light Snow,280,2013-01-31 23:19:00
6:22 PM,19.4,10.4,68,29.84,2.0,West,10.4,-,0.00,Snow,Light Snow,270,2013-01-31 23:22:00
6:31 PM,19.4,10.4,68,29.84,6.0,West,11.5,-,0.00,Snow,Light Snow,280,2013-01-31 23:31:00
6:45 PM,19.4,10.4,68,29.85,1.8,West,15.0,20.7,0.00,Snow,Light Snow,280,2013-01-31 23:45:00
6:53 PM,19.0,12.0,74,29.88,1.0,West,13.8,20.7,0.00,Snow,Light Snow,280,2013-01-31 23:53:00
7:00 PM,19.4,10.4,68,29.85,2.0,West,15.0,23.0,0.00,Snow,Light Snow,280,2013-02-01 00:00:00
7:09 PM,19.4,12.2,74,29.86,1.8,West,16.1,21.9,0.00,Snow,Light Snow,280,2013-02-01 00:09:00
7:20 PM,19.4,12.2,74,29.86,1.0,West,13.8,24.2,0.00,Snow,Light Snow,280,2013-02-01 00:20:00
7:27 PM,19.4,10.4,68,29.86,2.0,WNW,12.7,23.0,0.00,Snow,Light Snow,290,2013-02-01 00:27:00
7:45 PM,19.4,12.2,74,29.87,1.2,West,13.8,20.7,0.00,Snow,Light Snow,280,2013-02-01 00:45:00
7:53 PM,19.0,12.0,74,29.91,1.5,WNW,13.8,23.0,0.00,Snow,Light Snow,290,2013-02-01 00:53:00
8:00 PM,19.4,12.2,74,29.87,0.8,West,11.5,23.0,0.00,Snow,Light Snow,280,2013-02-01 01:00:00
8:08 PM,17.6,12.2,79,29.87,0.5,West,13.8,24.2,0.01,Snow,Snow,280,2013-02-01 01:08:00
8:17 PM,17.6,12.2,79,29.88,0.8,West,12.7,24.2,0.01,Snow,Light Snow,280,2013-02-01 01:17:00
8:37 PM,19.4,12.2,74,29.88,1.0,WNW,11.5,24.2,0.01,Snow,Light Snow,290,2013-02-01 01:37:00
8:40 PM,19.4,10.4,68,29.88,2.5,West,12.7,19.6,0.01,Snow,Light Snow,280,2013-02-01 01:40:00
8:53 PM,19.0,10.0,68,29.92,2.5,WNW,10.4,23.0,0.01,Snow,Light Snow,300,2013-02-01 01:53:00
8:58 PM,19.4,10.4,68,29.89,4.0,WNW,12.7,20.7,0.00,Snow,Light Snow,300,2013-02-01 01:58:00
9:04 PM,17.6,10.4,73,29.89,2.0,WNW,13.8,20.7,0.00,Snow,Light Snow,300,2013-02-01 02:04:00
9:10 PM,17.6,10.4,73,29.90,1.2,WNW,13.8,20.7,0.00,Snow,Light Snow,300,2013-02-01 02:10:00
9:16 PM,19.4,10.4,68,29.90,2.0,WNW,10.4,20.7,0.00,Snow,Light Snow,290,2013-02-01 02:16:00
9:24 PM,17.6,10.4,73,29.90,1.2,WNW,16.1,23.0,0.00,Snow,Light Snow,300,2013-02-01 02:24:00
9:30 PM,17.6,12.2,79,29.90,0.5,WNW,11.5,23.0,0.00,Snow,Snow,290,2013-02-01 02:30:00
9:41 PM,17.6,12.2,79,29.90,1.0,West,12.7,19.6,0.00,Snow,Light Snow,280,2013-02-01 02:41:00
9:46 PM,19.4,12.2,74,29.91,2.0,WNW,10.4,19.6,0.00,Snow,Light Snow,300,2013-02-01 02:46:00
9:51 PM,17.6,10.4,73,29.91,1.2,NW,11.5,19.6,0.00,Snow,Light Snow,310,2013-02-01 02:51:00
9:53 PM,18.0,12.0,78,29.94,1.0,WNW,17.3,23.0,0.00,Snow,Light Snow,300,2013-02-01 02:53:00
9:57 PM,17.6,12.2,79,29.91,0.8,WNW,13.8,23.0,0.00,Snow,Light Snow,300,2013-02-01 02:57:00
10:04 PM,17.6,12.2,79,29.91,0.8,WNW,16.1,24.2,0.00,Snow,Light Snow,300,2013-02-01 03:04:00
10:06 PM,17.6,12.2,79,29.91,0.5,WNW,15.0,24.2,0.00,Snow,Snow,300,2013-02-01 03:06:00
10:53 PM,18.0,12.9,81,29.96,0.5,WNW,10.4,20.7,0.01,Snow,Snow,290,2013-02-01 03:53:00
11:09 PM,17.6,12.2,79,29.93,0.8,NW,11.5,19.6,0.00,Snow,Light Snow,310,2013-02-01 04:09:00
11:17 PM,17.6,12.2,79,29.93,1.2,WNW,10.4,19.6,0.00,Snow,Light Snow,290,2013-02-01 04:17:00
11:21 PM,19.4,12.2,74,29.93,2.0,WNW,9.2,19.6,0.00,Snow,Light Snow,290,2013-02-01 04:21:00
11:35 PM,17.6,12.2,79,29.93,1.8,NW,11.5,-,0.00,Snow,Light Snow,310,2013-02-01 04:35:00
11:46 PM,17.6,10.4,73,29.94,3.0,NW,16.1,24.2,0.00,Snow,Light Snow,310,2013-02-01 04:46:00
11:53 PM,19.0,10.0,68,29.97,4.0,WNW,15.0,24.2,0.00,Snow,Light Snow,300,2013-02-01 04:53:00
11:57 PM,17.6,10.4,73,29.94,1.8,WNW,12.7,24.2,0.00,Snow,Light Snow,290,2013-02-01 04:57:00